Weather in Brusnichny

Russia / Irkutsk Oblast     57°16′17″N   103°16′05″E
temp.,
°C
wind,
m/s
gust,
m/s
humid.,
%
clouds,
%
prec.,
mm/h
press.,
hPa
HPBL,
m
17 april, sat
sat1723:00+6sw71685100 0.1 10001136
02:00+5sw71790100 1.8 9981190
05:00−1nw3995100 1.9 1002597
08:00−3nw4984100 2.3 1007643
11:00−1wnw5772100 0.1 10081254
14:00−1nw6872100 0.3 10111373
17:00−2nw5857100 0.1 10131946
20:00−6nw49705 0.1 1017930
18 april, sun
sun1823:00−8nw39805 0.0 1020631
02:00−9w25865 0.0 1023196
05:00−10w13916 0.0 102571
08:00−7wsw25665 0.0 1026523
11:00−3wsw3452100 0.0 10251615
14:00−1wsw2443100 0.1 10242032
17:000s3540100 0.0 10211878
20:00−4se1172100 0.0 102110
19 april, mon
mon1923:00−4se31070100 0.0 1019380
02:00−4se2774100 0.0 1016302
05:00−4ese2790100 0.1 1014402
08:00−3se488794 0.3 1011529
11:00+1se5758100 0.0 10061008
14:00+2se61265100 0.2 10001326
17:00+1s31098100 4.3 997515
20:000wsw7157162 5.5 10001381
20 april, tue
tue2023:00−5wsw71686100 0.1 10051342
02:00−7wsw81780100 0.2 10081231
05:00−8wsw71680100 0.1 10121259
08:00−8wsw71379100 0.1 10151277
11:00−6w71162100 0.1 10171541
14:00−3w71150100 0.1 10182063
17:00−4w6958100 0.0 10201979
20:00−6wnw377290 0.1 1022444
21 april, wed
wed2123:00−10wsw12946 0.0 102451
02:00−11wsw119621 0.0 102527
05:00−12wnw119739 0.0 102611
08:00−8nnw12785 0.0 1026236
11:00−4n1250100 0.1 10261469
14:00−2nne2344100 0.1 10251833
17:00−2nne3351100 0.1 10251358
20:00−4nnw2477100 0.3 102784